Location: Banff
(51.1667°N, 115.5667°W)
Time: 12:40:59
(UTC+00:00)

Vanguard 1 Rocket - Pass Details

Date: 28 November 2020
Orbit: 655 x 4222 km, 34.3° (Epoch: 23 January)

Event Time Altitude Azimuth Distance (km) Brightness Sun altitude
Rises 06:00:30 0° 182° (S) 8,038 - -55.5°
Reaches altitude 10° 06:09:17 10° 165° (SSE) 7,334 - -56.3°
Maximum altitude 06:22:55 18° 133° (SE) 6,695 - -57.5°
Drops below altitude 10° 06:35:32 10° 101° (E) 6,854 - -58.4°
Exits shadow 06:39:05 - 93° (E) 7,056 11.7 -58.6°
Sets 06:42:57 0° 85° (E) 7,354 11.9 -58.8°
